Location: Axtheid
(49.6213°N, 11.8205°E)
Time: 17:20:12
(UTC+00:00)

Envisat - Pass Details

Date: 30 September 2022
Orbit: 763 x 765 km, 98.2° (Epoch: 30 November)

Event Time Altitude Azimuth Distance (km) Brightness Sun altitude
Rises 02:29:32 0° 25° (NNE) 3,246 7.1 -26.0°
Reaches altitude 10° 02:32:24 10° 41° (NE) 2,314 6.4 -25.6°
Maximum altitude 02:36:15 21° 90° (E) 1,658 5.4 -25.0°
Drops below altitude 10° 02:40:06 10° 140° (SE) 2,300 5.6 -24.5°
Sets 02:42:55 0° 156° (SSE) 3,220 6.2 -24.1°
